FW9262 Weather Reports


Display with metric or nautical units.
time (UTC)temp
F
wind
direction
speed
MPH
gust
MPH
rain 1hr
in
rain 24hr
in
rain mn
in
humidity
%
barometer
mb
20260905224423 82 210 4.0 4.0 0.00 0.00 0.00 61 1014.9
20260905223922 81 248 5.0 6.0 0.00 0.00 0.00 63 1014.9
20260905223421 82 246 4.0 7.0 0.00 0.00 0.00 62 1014.9
20260905222920 81 248 4.0 6.0 0.00 0.00 0.00 62 1014.9
20260905222420 82 262 3.0 4.0 0.00 0.00 0.00 62 1014.9
20260905221916 83 218 2.0 6.0 0.00 0.00 0.00 60 1014.9
20260905221413 82 301 1.0 6.0 0.00 0.00 0.00 62 1015.3
20260905220909 81 225 4.0 6.0 0.00 0.00 0.00 63 1014.9
20260905220404 81 264 2.0 6.0 0.00 0.00 0.00 62 1014.9
20260905215903 82 269 3.0 4.0 0.00 0.00 0.00 61 1015.6
20260905215359 82 224 4.0 4.0 0.00 0.00 0.00 61 1015.3
20260905214855 83 271 3.0 7.0 0.00 0.00 0.00 60 1015.3
20260905214350 82 207 4.0 6.0 0.00 0.00 0.00 60 1015.3
20260905213845 82 226 4.0 4.0 0.00 0.00 0.00 60 1015.3
20260905213341 84 255 4.0 4.0 0.00 0.00 0.00 57 1015.6
20260905212836 82 310 2.0 3.0 0.00 0.00 0.00 60 1015.6
20260905212336 84 251 5.0 7.0 0.00 0.00 0.00 59 1015.6
20260905211830 84 276 4.0 6.0 0.00 0.00 0.00 58 1015.6
20260905211326 82 258 3.0 6.0 0.00 0.00 0.00 61 1015.6
20260905210822 83 299 4.0 6.0 0.00 0.00 0.00 59 1016.0
20260905210322 82 238 2.0 6.0 0.00 0.00 0.00 61 1016.0
20260905205821 81 211 3.0 6.0 0.00 0.00 0.00 62 1015.6
20260905205316 82 268 4.0 6.0 0.00 0.00 0.00 60 1016.0
20260905204815 82 248 4.0 6.0 0.00 0.00 0.00 62 1016.0
20260905204311 82 339 1.0 4.0 0.00 0.00 0.00 62 1016.0
20260905203810 82 155 1.0 6.0 0.00 0.00 0.00 62 1016.3
20260905203306 81 334 1.0 3.0 0.00 0.00 0.00 62 1016.0
20260905202801 81 263 3.0 6.0 0.00 0.00 0.00 63 1016.3
20260905202256 81 239 3.0 6.0 0.00 0.00 0.00 64 1016.0
20260905201752 82 278 5.0 6.0 0.00 0.00 0.00 61 1016.0
20260905201247 81 318 2.0 3.0 0.00 0.00 0.00 63 1016.3
20260905200742 81 337 2.0 3.0 0.00 0.00 0.00 62 1016.3
20260905200237 81 232 6.0 7.0 0.00 0.00 0.00 62 1016.3
20260905195735 82 203 4.0 6.0 0.00 0.00 0.00 61 1016.3
20260905195230 81 307 1.0 7.0 0.00 0.00 0.00 63 1016.6
20260905194726 81 292 2.0 4.0 0.00 0.00 0.00 62 1016.6
20260905194225 82 215 4.0 4.0 0.00 0.00 0.00 62 1016.6
20260905193719 81 300 4.0 4.0 0.00 0.00 0.00 62 1016.6
20260905193214 81 250 4.0 6.0 0.00 0.00 0.00 62 1016.6
20260905192710 81 264 2.0 4.0 0.00 0.00 0.00 62 1016.3
20260905192206 82 223 2.0 6.0 0.00 0.00 0.00 62 1017.0
20260905191706 82 264 2.0 6.0 0.00 0.00 0.00 62 1016.6
20260905191204 81 245 1.0 3.0 0.00 0.00 0.00 62 1016.6
20260905190703 81 299 2.0 4.0 0.00 0.00 0.00 62 1016.6
20260905190202 81 144 2.0 4.0 0.00 0.00 0.00 63 1017.0
20260905185701 82 2 2.0 3.0 0.00 0.00 0.00 62 1017.0
20260905185155 82 212 3.0 3.0 0.00 0.00 0.00 62 1017.0
20260905184655 83 318 1.0 3.0 0.00 0.00 0.00 60 1017.3
20260905184154 82 260 2.0 4.0 0.00 0.00 0.00 60 1017.3
20260905183648 80 222 3.0 3.0 0.00 0.00 0.00 63 1017.3
20260905183143 80 181 2.0 4.0 0.00 0.00 0.00 64 1017.3
20260905182643 81 273 2.0 3.0 0.00 0.00 0.00 63 1017.0
20260905182143 81 130 2.0 3.0 0.00 0.00 0.00 63 1017.6
20260905181638 81 186 2.0 4.0 0.00 0.00 0.00 64 1017.3
20260905181137 80 306 2.0 3.0 0.00 0.00 0.00 64 1017.3
20260905180632 80 101 1.0 4.0 0.00 0.00 0.00 65 1017.6
20260905180127 80 236 2.0 6.0 0.00 0.00 0.00 64 1017.6
20260905175626 80 154 2.0 3.0 0.00 0.00 0.00 64 1017.3
20260905175122 81 224 4.0 6.0 0.00 0.00 0.00 64 1017.3
20260905174617 81 252 1.0 3.0 0.00 0.00 0.00 63 1017.3
20260905174113 81 314 2.0 3.0 0.00 0.00 0.00 57 1017.3
20260905173609 82 64 0.0 1.0 0.00 0.00 0.00 56 1017.3
20260905173104 81 347 0.0 1.0 0.00 0.00 0.00 58 1017.0
20260905172603 80 182 1.0 2.0 0.00 0.00 0.00 59 1017.3
20260905172058 80 20 1.0 1.0 0.00 0.00 0.00 60 1017.3
20260905171554 79 76 3.0 4.0 0.00 0.00 0.00 61 1017.0
20260905171050 79 303 0.0 4.0 0.00 0.00 0.00 62 1017.3
20260905170547 79 261 2.0 2.0 0.00 0.00 0.00 62 1017.3
20260905170042 80 49 0.0 1.0 0.00 0.00 0.00 61 1017.0
20260905165537 78 352 0.0 1.0 0.00 0.00 0.00 64 1017.3
20260905165032 77 317 1.0 3.0 0.00 0.00 0.00 65 1017.0
20260905164526 77 342 1.0 2.0 0.00 0.00 0.00 65 1017.0
20260905164021 78 95 2.0 2.0 0.00 0.00 0.00 63 1017.0
20260905163517 78 12 1.0 3.0 0.00 0.00 0.00 64 1017.0
20260905163013 78 34 0.0 2.0 0.00 0.00 0.00 65 1017.0
20260905162508 77 31 1.0 2.0 0.00 0.00 0.00 66 1017.0
20260905162003 76 48 2.0 2.0 0.00 0.00 0.00 68 1017.0
20260905161503 76 62 2.0 3.0 0.00 0.00 0.00 68 1017.0
20260905161000 78 176 1.0 3.0 0.00 0.00 0.00 66 1017.0
20260905160454 76 7 0.0 1.0 0.00 0.00 0.00 69 1017.0
20260905155954 77 59 0.0 1.0 0.00 0.00 0.00 69 1017.0
20260905155449 77 27 1.0 1.0 0.00 0.00 0.00 70 1017.0
20260905154947 75 349 0.0 1.0 0.00 0.00 0.00 73 1017.0
20260905154442 76 357 0.0 2.0 0.00 0.00 0.00 72 1017.0
20260905153938 77 28 0.0 2.0 0.00 0.00 0.00 70 1017.0
20260905153434 77 348 0.0 0.0 0.00 0.00 0.00 72 1017.0
20260905152934 76 347 0.0 0.0 0.00 0.00 0.00 73 1017.0
20260905152434 75 345 0.0 2.0 0.00 0.00 0.00 74 1017.0
20260905151928 74 14 1.0 2.0 0.00 0.00 0.00 75 1017.0
20260905151425 74 7 0.0 1.0 0.00 0.00 0.00 76 1017.0
20260905150924 75 347 0.0 0.0 0.00 0.00 0.00 75 1017.0
20260905150419 74 4 0.0 0.0 0.00 0.00 0.00 74 1017.0
20260905145915 74 26 0.0 0.0 0.00 0.00 0.00 76 1017.0
20260905145410 74 347 0.0 0.0 0.00 0.00 0.00 77 1016.6
20260905144909 71 17 0.0 0.0 0.00 0.00 0.00 82 1016.6
20260905144405 70 348 0.0 0.0 0.00 0.00 0.00 86 1016.6
20260905143904 69 354 0.0 0.0 0.00 0.00 0.00 90 1016.6
20260905143358 68 354 0.0 0.0 0.00 0.00 0.00 92 1016.3
20260905142857 67 347 0.0 0.0 0.00 0.00 0.00 94 1016.0
20260905142356 66 11 0.0 0.0 0.00 0.00 0.00 94 1016.3
20260905141852 66 343 0.0 0.0 0.00 0.00 0.00 95 1016.3
20260905141347 66 352 0.0 0.0 0.00 0.00 0.00 95 1016.6
20260905140844 66 348 0.0 0.0 0.00 0.00 0.00 95 1016.3
20260905140343 65 336 0.0 0.0 0.00 0.00 0.00 95 1016.3
20260905135842 64 345 0.0 0.0 0.00 0.00 0.00 95 1016.3
20260905135338 64 345 0.0 0.0 0.00 0.00 0.00 95 1016.3
20260905134833 64 334 0.0 0.0 0.00 0.00 0.00 95 1016.0
20260905134326 63 345 0.0 0.0 0.00 0.00 0.00 95 1016.3
20260905133821 63 341 0.0 0.0 0.00 0.00 0.00 95 1016.0
20260905133316 63 341 0.0 0.0 0.00 0.00 0.00 95 1016.0
20260905132815 63 346 0.0 0.0 0.00 0.00 0.00 95 1016.0
20260905132311 63 344 0.0 0.0 0.00 0.00 0.00 95 1016.0
20260905131805 63 348 0.0 0.0 0.00 0.00 0.00 95 1015.6
20260905131301 63 346 0.0 0.0 0.00 0.00 0.00 95 1015.6
20260905130755 63 342 0.0 0.0 0.00 0.00 0.00 95 1016.0
20260905130254 62 346 0.0 0.0 0.00 0.00 0.00 95 1016.0
20260905125750 62 343 0.0 0.0 0.00 0.00 0.00 95 1016.0
20260905125244 62 344 0.0 0.0 0.00 0.00 0.00 95 1016.0
20260905124741 62 342 0.0 0.0 0.00 0.00 0.00 95 1016.0
20260905124237 62 341 0.0 0.0 0.00 0.00 0.00 95 1016.0
20260905123732 63 340 0.0 0.0 0.00 0.00 0.00 95 1015.6
20260905123229 63 336 0.0 0.0 0.00 0.00 0.00 94 1015.6
20260905122729 63 344 0.0 0.0 0.00 0.00 0.00 94 1015.6
20260905122228 63 342 0.0 0.0 0.00 0.00 0.00 94 1015.6
20260905121724 63 343 0.0 0.0 0.00 0.00 0.00 94 1015.6
20260905121220 63 344 0.0 0.0 0.00 0.00 0.00 94 1016.0
20260905120719 63 343 0.0 0.0 0.00 0.00 0.00 94 1015.6
20260905120213 63 349 0.0 0.0 0.00 0.00 0.00 94 1016.0
20260905115708 63 346 0.0 0.0 0.00 0.00 0.00 94 1015.6
20260905115203 63 343 0.0 0.0 0.00 0.00 0.00 94 1016.0
20260905114703 63 348 0.0 0.0 0.00 0.00 0.00 94 1016.0
20260905114201 63 0 0.0 1.0 0.00 0.00 0.00 94 1015.6
20260905113655 63 342 0.0 1.0 0.00 0.00 0.00 94 1015.6
20260905113151 63 343 0.0 0.0 0.00 0.00 0.00 94 1016.0
20260905112650 64 343 0.0 0.0 0.00 0.00 0.00 94 1016.0
20260905112146 64 343 0.0 0.0 0.00 0.00 0.00 94 1015.6
20260905111646 64 348 0.0 0.0 0.00 0.00 0.00 94 1016.0
20260905111145 64 345 0.0 0.0 0.00 0.00 0.00 94 1016.0
20260905110644 64 342 0.0 0.0 0.00 0.00 0.00 94 1016.0
20260905110140 64 343 0.0 0.0 0.00 0.00 0.00 94 1015.6
20260905105635 64 342 0.0 0.0 0.00 0.00 0.00 94 1015.6
20260905105134 64 330 0.0 0.0 0.00 0.00 0.00 94 1015.6
20260905104629 64 341 0.0 0.0 0.00 0.00 0.00 94 1016.0
20260905104125 64 337 0.0 0.0 0.00 0.00 0.00 93 1015.6
20260905103620 64 341 0.0 0.0 0.00 0.00 0.00 93 1016.0
20260905103116 64 343 0.0 0.0 0.00 0.00 0.00 93 1016.0
20260905102611 64 344 0.0 0.0 0.00 0.00 0.00 93 1016.0
20260905102108 64 336 0.0 0.0 0.00 0.00 0.00 93 1016.0
20260905101606 65 340 0.0 0.0 0.00 0.00 0.00 93 1016.0
20260905101104 65 351 0.0 0.0 0.00 0.00 0.00 93 1016.0
20260905100601 65 343 0.0 0.0 0.00 0.00 0.00 93 1016.0
20260905100055 65 343 0.0 1.0 0.00 0.00 0.00 93 1016.0
20260905095549 65 356 0.0 0.0 0.00 0.00 0.00 93 1016.0
20260905095045 65 342 0.0 0.0 0.00 0.00 0.00 93 1016.0
20260905094539 65 345 0.0 0.0 0.00 0.00 0.00 93 1016.0
20260905094039 65 347 0.0 0.0 0.00 0.00 0.00 93 1016.0
20260905093533 65 347 0.0 0.0 0.00 0.00 0.00 93 1016.0
20260905093030 65 341 0.0 0.0 0.00 0.00 0.00 92 1015.6
20260905092530 65 350 0.0 0.0 0.00 0.00 0.00 92 1016.0
20260905092026 65 341 0.0 0.0 0.00 0.00 0.00 92 1016.3
20260905091524 65 335 0.0 0.0 0.00 0.00 0.00 92 1016.0
20260905091019 66 336 0.0 0.0 0.00 0.00 0.00 92 1016.0
20260905090519 66 345 0.0 0.0 0.00 0.00 0.00 92 1016.0
20260905090014 66 348 0.0 1.0 0.00 0.00 0.00 92 1016.0
20260905085512 66 342 0.0 0.0 0.00 0.00 0.00 92 1016.0
20260905085009 66 333 0.0 0.0 0.00 0.00 0.00 92 1016.0
20260905084503 66 343 0.0 1.0 0.00 0.00 0.00 92 1016.0
20260905083957 66 351 0.0 1.0 0.00 0.00 0.00 92 1016.0
20260905083453 66 346 0.0 0.0 0.00 0.00 0.00 92 1016.0
20260905082949 67 345 0.0 0.0 0.00 0.00 0.00 92 1016.3
20260905082444 67 354 0.0 0.0 0.00 0.00 0.00 92 1016.3
20260905081939 67 4 0.0 0.0 0.00 0.00 0.00 92 1016.0
20260905081434 67 4 1.0 2.0 0.00 0.00 0.00 92 1016.3
20260905080933 67 344 0.0 2.0 0.00 0.00 0.00 92 1016.0
20260905080428 67 28 1.0 2.0 0.00 0.00 0.00 92 1016.0
20260905075927 67 24 1.0 1.0 0.00 0.00 0.00 92 1016.3
20260905075421 67 8 1.0 2.0 0.00 0.00 0.00 92 1016.0
20260905074920 67 12 1.0 1.0 0.00 0.00 0.00 92 1016.3
20260905074416 67 6 1.0 1.0 0.00 0.00 0.00 92 1016.0
20260905073912 67 15 1.0 1.0 0.00 0.00 0.00 93 1016.0
20260905073407 67 3 0.0 1.0 0.00 0.00 0.00 92 1016.0
20260905072902 67 47 1.0 2.0 0.00 0.00 0.00 93 1016.3
20260905072356 68 354 1.0 2.0 0.00 0.00 0.00 93 1016.3
20260905071852 68 38 1.0 2.0 0.00 0.00 0.00 93 1016.0
20260905071349 68 358 1.0 2.0 0.00 0.00 0.00 93 1016.0
20260905070843 68 11 1.0 2.0 0.00 0.00 0.00 93 1016.0
20260905070340 68 26 2.0 2.0 0.00 0.00 0.00 93 1016.0
20260905065839 68 351 0.0 2.0 0.00 0.00 0.00 93 1016.0
20260905065337 68 13 1.0 2.0 0.00 0.00 0.00 93 1016.0
20260905064832 67 356 0.0 2.0 0.00 0.00 0.00 93 1016.0
20260905064328 68 14 1.0 1.0 0.00 0.00 0.00 93 1016.0
20260905063826 68 350 0.0 1.0 0.00 0.00 0.00 93 1016.0
20260905063323 67 328 0.0 0.0 0.00 0.00 0.00 93 1016.0
20260905062819 68 351 0.0 0.0 0.00 0.00 0.00 93 1016.3
20260905062319 68 344 0.0 0.0 0.00 0.00 0.00 93 1016.0
20260905061813 68 346 0.0 0.0 0.00 0.00 0.00 92 1016.0
20260905061308 68 341 0.0 0.0 0.00 0.00 0.00 92 1016.0
20260905060802 68 345 0.0 0.0 0.00 0.00 0.00 92 1016.0
20260905060259 68 1 0.0 0.0 0.00 0.00 0.00 92 1016.0
20260905055758 68 2 0.0 0.0 0.00 0.00 0.00 92 1016.0
20260905055252 68 0 0.0 0.0 0.00 0.00 0.00 92 1016.0
20260905054748 68 356 0.0 0.0 0.00 0.00 0.00 92 1016.0
20260905054245 68 327 0.0 0.0 0.00 0.00 0.00 92 1016.0
20260905053743 68 350 0.0 0.0 0.00 0.00 0.00 91 1016.0
20260905053239 67 348 0.0 0.0 0.00 0.00 0.00 91 1016.0
20260905052738 68 345 0.0 0.0 0.00 0.00 0.00 91 1015.6
20260905052233 68 340 0.0 0.0 0.00 0.00 0.00 91 1016.0
20260905051733 68 340 0.0 0.0 0.00 0.00 0.00 91 1016.0
20260905051230 68 1 0.0 0.0 0.00 0.00 0.00 91 1016.0
20260905050726 68 357 0.0 0.0 0.00 0.00 0.00 91 1016.0
20260905050222 68 352 0.0 0.0 0.00 0.00 0.00 90 1016.0
20260905045722 68 347 0.0 0.0 0.00 0.00 0.00 90 1016.0
20260905045217 68 23 0.0 0.0 0.00 0.00 0.00 90 1016.0
20260905044712 68 342 0.0 0.0 0.00 0.00 0.00 90 1016.0
20260905044207 69 337 0.0 0.0 0.00 0.00 0.00 90 1016.0
20260905043706 68 341 0.0 0.0 0.00 0.00 0.00 89 1015.6
20260905043200 69 340 0.0 0.0 0.00 0.00 0.00 89 1015.6
20260905042655 69 337 0.0 0.0 0.00 0.00 0.00 89 1015.6
20260905042154 69 340 0.0 0.0 0.00 0.00 0.00 88 1015.3
20260905041650 69 343 0.0 0.0 0.00 0.00 0.00 88 1015.6
20260905041145 69 347 0.0 0.0 0.00 0.00 0.00 88 1015.3
20260905040640 69 336 0.0 0.0 0.00 0.00 0.00 88 1015.6
20260905040139 69 333 0.0 0.0 0.00 0.00 0.00 88 1015.3
20260905035634 70 338 0.0 0.0 0.00 0.00 0.00 88 1015.3
20260905035131 70 331 0.0 1.0 0.00 0.00 0.00 88 1015.3
20260905034626 70 315 0.0 2.0 0.00 0.00 0.00 87 1014.9
20260905034126 70 287 1.0 2.0 0.00 0.00 0.00 87 1014.9
20260905033620 70 345 0.0 1.0 0.00 0.00 0.00 86 1015.3
20260905033116 70 327 0.0 2.0 0.00 0.00 0.00 86 1014.9
20260905032616 70 329 0.0 1.0 0.00 0.00 0.00 86 1014.9
20260905032115 70 340 0.0 1.0 0.00 0.00 0.00 86 1014.9
20260905031611 70 333 0.0 1.0 0.00 0.00 0.00 85 1014.9
20260905031111 70 321 1.0 2.0 0.00 0.00 0.00 85 1014.9
20260905030606 70 320 0.0 1.0 0.00 0.00 0.00 85 1014.6
20260905025557 71 290 1.0 3.0 0.00 0.00 0.00 84 1014.9
20260905025053 70 303 1.0 3.0 0.00 0.00 0.00 83 1014.9
20260905024548 70 43 1.0 2.0 0.00 0.00 0.00 83 1014.9
20260905024043 70 291 1.0 2.0 0.00 0.00 0.00 83 1014.9
20260905023538 71 300 2.0 3.0 0.00 0.00 0.00 83 1014.6
20260905023033 71 281 1.0 3.0 0.00 0.00 0.00 82 1014.6
20260905022532 71 341 0.0 2.0 0.00 0.00 0.00 82 1014.6
20260905022028 71 329 1.0 1.0 0.00 0.00 0.00 82 1014.6
20260905021527 71 294 2.0 2.0 0.00 0.00 0.00 82 1014.9
20260905021023 71 301 3.0 4.0 0.00 0.00 0.00 81 1014.9
20260905020522 71 342 0.0 2.0 0.00 0.00 0.00 81 1014.9
20260905020018 71 268 2.0 3.0 0.00 0.00 0.00 81 1014.9
20260905015515 72 316 1.0 3.0 0.00 0.00 0.00 80 1014.9
20260905015016 72 297 1.0 4.0 0.00 0.00 0.00 80 1014.9
20260905014510 72 296 2.0 3.0 0.00 0.00 0.00 79 1014.9
20260905014006 73 265 3.0 4.0 0.00 0.00 0.00 78 1014.9
20260905013502 73 321 1.0 1.0 0.00 0.00 0.00 77 1014.9
20260905012957 73 333 2.0 2.0 0.00 0.00 0.00 76 1014.9
20260905012452 73 305 1.0 3.0 0.00 0.00 0.00 77 1015.3
20260905011949 73 279 2.0 4.0 0.00 0.00 0.00 77 1014.9
20260905011444 73 212 2.0 4.0 0.00 0.00 0.00 77 1015.3
20260905010940 73 283 2.0 6.0 0.00 0.00 0.00 77 1014.9
20260905010435 73 335 2.0 4.0 0.00 0.00 0.00 77 1014.9
20260905005930 73 210 2.0 6.0 0.00 0.00 0.00 77 1014.9
20260905005426 74 305 2.0 6.0 0.00 0.00 0.00 75 1015.3
20260905004926 74 247 2.0 6.0 0.00 0.00 0.00 74 1015.3
20260905004421 75 203 2.0 2.0 0.00 0.00 0.00 73 1015.3
20260905003917 75 268 2.0 6.0 0.00 0.00 0.00 73 1015.3
20260905003412 75 257 3.0 7.0 0.00 0.00 0.00 73 1015.3
20260905002908 75 310 0.0 4.0 0.00 0.00 0.00 74 1015.3
20260905002408 75 258 4.0 6.0 0.00 0.00 0.00 72 1015.3
20260905001907 76 152 3.0 4.0 0.00 0.00 0.00 70 1015.3
20260905001402 77 291 2.0 4.0 0.00 0.00 0.00 69 1015.3
20260905000857 78 294 2.0 4.0 0.00 0.00 0.00 68 1015.3
20260905000355 77 336 1.0 3.0 0.00 0.00 0.00 69 1014.9
20260904235848 77 297 2.0 6.0 0.00 0.00 0.00 70 1014.9
20260904235343 77 291 3.0 6.0 0.00 0.00 0.00 70 1014.9
20260904234838 77 275 2.0 4.0 0.00 0.00 0.00 69 1014.9
20260904234333 77 320 2.0 4.0 0.00 0.00 0.00 68 1014.9
20260904233829 78 200 1.0 3.0 0.00 0.00 0.00 68 1015.3
20260904233324 77 344 0.0 3.0 0.00 0.00 0.00 68 1015.3
20260904232821 77 296 4.0 7.0 0.00 0.00 0.00 69 1014.9
20260904232317 77 288 2.0 7.0 0.00 0.00 0.00 69 1014.9
20260904231813 79 290 3.0 3.0 0.00 0.00 0.00 66 1015.3
20260904231307 78 325 1.0 3.0 0.00 0.00 0.00 68 1014.9
20260904230803 78 203 4.0 7.0 0.00 0.00 0.00 67 1015.3
20260904230301 78 287 2.0 7.0 0.00 0.00 0.00 68 1015.3
20260904225756 78 263 1.0 7.0 0.00 0.00 0.00 67 1015.3
20260904225249 78 218 3.0 4.0 0.00 0.00 0.00 68 1015.3
20260904224749 77 336 2.0 6.0 0.00 0.00 0.00 69 1015.3